This is the latest recevied weather packets stored in our database for station/object HS3UAA-1. If no packets are shown the sender has not sent any weather packets the latest 10 day(s).
| Time | Temp. | Humidity | Pressure | Rain* | Wind** | Luminosity | Snow |
|---|---|---|---|---|---|---|---|
| 1788368393 | 33.89° C | 45% | 997 hPa | - | - | 0 W/m² | - |
| 1788368071 | 33.33° C | 45% | 997 hPa | - | - | 0 W/m² | - |
| 1788367749 | 33.89° C | 44% | 997 hPa | - | - | 0 W/m² | - |
| 1788367427 | 33.33° C | 45% | 997 hPa | - | - | 0 W/m² | - |
| 1788367105 | 33.89° C | 44% | 997 hPa | - | - | 0 W/m² | - |
| 1788366783 | 33.89° C | 45% | 997 hPa | - | - | 0 W/m² | - |
| 1788366461 | 33.89° C | 45% | 997 hPa | - | - | 0 W/m² | - |
| 1788366139 | 33.89° C | 45% | 997 hPa | - | - | 0 W/m² | - |
| 1788365817 | 33.33° C | 45% | 997 hPa | - | - | 0 W/m² | - |
| 1788365495 | 33.89° C | 44% | 997 hPa | - | - | 0 W/m² | - |
| 1788365173 | 35° C | 42% | 998 hPa | - | - | 0 W/m² | - |
| 1788364850 | 33.33° C | 45% | 998 hPa | - | - | 0 W/m² | - |
| 1788364529 | 33.89° C | 44% | 998 hPa | - | - | 0 W/m² | - |
| 1788364207 | 33.89° C | 43% | 998 hPa | - | - | 0 W/m² | - |
| 1788363884 | 35° C | 41% | 998 hPa | - | - | 0 W/m² | - |
| 1788363562 | 33.89° C | 43% | 998 hPa | - | - | 0 W/m² | - |
| 1788363251 | 34.44° C | 43% | 998 hPa | - | - | 0 W/m² | - |
| 1788362918 | 33.89° C | 44% | 998 hPa | - | - | 0 W/m² | - |
| 1788362596 | 34.44° C | 42% | 998 hPa | - | - | 0 W/m² | - |
| 1788362274 | 34.44° C | 43% | 998 hPa | - | - | 0 W/m² | - |
| 1788361952 | 34.44° C | 42% | 998 hPa | - | - | 0 W/m² | - |
| 1788361630 | 34.44° C | 42% | 997 hPa | - | - | 0 W/m² | - |
| 1788361308 | 34.44° C | 42% | 997 hPa | - | - | 0 W/m² | - |
| 1788360986 | 34.44° C | 42% | 997 hPa | - | - | 0 W/m² | - |
| 1788360664 | 34.44° C | 42% | 997 hPa | - | - | 0 W/m² | - |
* Rain since midnight (hover to see other rain measurements)
** Current wind speed in m/s (hover to see current wind gust speed)